User: anonymous   Login
Location: Newport
(44.6370°N, 124.0520°W)
Time: 12:32:42
(UTC-07:00)
Language:

Envisat - Orbit

View from above orbital plane
View from above orbital plane
View from above satellite
View from above satellite

Ground track
Ground track

The orbit data is extracted from the following two-line orbital elements,

1 27386U 02009A   18111.53666521 -.00000018  00000-0  75443-5 0  9991
2 27386  98.1906 148.2491 0001411  92.1039  32.4210 14.37920125845385
Epoch (UTC): 21 April 2018 12:52:47
Eccentricity: 0.0001411
inclination: 98.1906°
perigee height: 764 km
apogee height: 766 km
right ascension of ascending node: 148.2491°
argument of perigee: 92.1039°
revolutions per day: 14.37920125
mean anomaly at epoch: 32.4210°
orbit number at epoch: 84538

The dashed part of the orbit path shows where the satellite is in the earth's shadow,  

DLR